map of KJAU home
KJAU - Airport
Location
City:  Jacksboro, Tennessee, United States
Name:Colonel Tommy C Stiner Airfield
ICAO:KJAU
FAA LID:JAU

Details
Type:Airport (Airfield)
Use:Public/Civil
Latitude:3620'03"N (36.334089)
Longitude:8409'47"W (-84.162964)
Datum:WGS 1984
Elevation:1179 ft (359 m)
Variation:5.68W (WMM2015v2 magnetic declination)
-0.04 annual change
Runways:1
Longest:4000 × 75 ft (1219 × 23 m), paved

Time
Time Zone:UTC-5 (DST-4)
Local Time:

Weather
METAR:KJAU 041415Z AUTO 00000KT M1/4SM FG OVC002 05/05 A3011 RMK A01

Related Locations
Nearby:
Farthest:YAUG: 11345 mi / 18258 km
Augusta [Augusta Airport], WA, AU

Find:

   beyond  
but within

Other Information
Maps:
NOTAMs:
Links:
Sources:

  
  • flag of United States
  • flag of Tennessee
  

Sectional Chart

Flight Planning
at skyvector.com

Satellite Image

Google Maps Satellite view

 

Copyright © 2004-2019 Karl L. Swartz. All rights reserved.
The Great Circle Mapper name and logo are trademarks of the Great Circle Mapper.
All other trademarks mentioned herein belong to their respective owners.
Please see credits for attibutions and further copyright information.

  Follow gcmap on Facebook Follow gcmap on Twitter GCmap on LinkedIn

hCard Microformat

Geo Microformat